Time,TemperatureF,DewpointF,PressureIn,WindDirection,WindDirectionDegrees,WindSpeedMPH,WindSpeedGustMPH,Humidity,HourlyPrecipIn,Conditions,Clouds,dailyrainin,SoftwareType,DateUTC
2013-09-18 00:02:00,66.9,59.1,30.20,NNW,347,5.0,6.0,76,0.00,,,0.00,Wunderground v.1.15,2013-09-18 04:02:00,
2013-09-18 00:04:00,66.8,59.4,30.20,NW,322,5.0,6.0,77,0.00,,,0.00,Wunderground v.1.15,2013-09-18 04:04:00,
2013-09-18 00:06:00,66.8,59.4,30.20,NNW,332,5.0,6.0,77,0.00,,,0.00,Wunderground v.1.15,2013-09-18 04:06:00,
2013-09-18 00:08:00,66.8,59.0,30.20,NNW,335,5.0,6.0,76,0.00,,,0.00,Wunderground v.1.15,2013-09-18 04:08:00,
2013-09-18 00:14:00,66.6,59.2,30.19,NNW,328,5.0,6.0,77,0.00,,,0.00,Wunderground v.1.15,2013-09-18 04:14:00,
2013-09-18 00:20:00,66.4,59.0,30.19,NNW,347,5.0,5.0,77,0.00,,,0.00,Wunderground v.1.15,2013-09-18 04:20:00,
2013-09-18 00:26:00,66.4,59.0,30.19,NNW,337,4.0,6.0,77,0.00,,,0.00,Wunderground v.1.15,2013-09-18 04:26:00,
2013-09-18 00:32:00,66.4,59.0,30.19,NW,315,4.0,5.0,77,0.00,,,0.00,Wunderground v.1.15,2013-09-18 04:32:00,
2013-09-18 00:38:00,66.4,59.3,30.20,NNW,343,4.0,6.0,78,0.00,,,0.00,Wunderground v.1.15,2013-09-18 04:38:00,
2013-09-18 00:42:00,66.4,59.0,30.20,North,5,5.0,5.0,77,0.00,,,0.00,Wunderground v.1.15,2013-09-18 04:42:00,
2013-09-18 00:48:00,66.4,59.0,30.20,North,357,4.0,5.0,77,0.00,,,0.00,Wunderground v.1.15,2013-09-18 04:48:00,
2013-09-18 00:54:00,66.4,59.0,30.20,North,1,4.0,10.0,77,0.00,,,0.00,Wunderground v.1.15,2013-09-18 04:54:00,
2013-09-18 01:00:00,66.5,59.1,30.19,NNE,20,6.0,6.0,77,0.00,,,0.00,Wunderground v.1.15,2013-09-18 05:00:00,
2013-09-18 01:08:00,66.4,59.0,30.19,NNW,338,6.0,14.0,77,0.00,,,0.00,Wunderground v.1.15,2013-09-18 05:08:00,
2013-09-18 01:14:00,66.4,59.0,30.19,NNW,330,5.0,14.0,77,0.00,,,0.00,Wunderground v.1.15,2013-09-18 05:14:00,
2013-09-18 01:20:00,66.3,58.5,30.19,NW,319,6.0,14.0,76,0.00,,,0.00,Wunderground v.1.15,2013-09-18 05:20:00,
2013-09-18 01:26:00,66.3,58.9,30.20,WNW,291,7.0,14.0,77,0.00,,,0.00,Wunderground v.1.15,2013-09-18 05:26:00,
2013-09-18 01:32:00,66.2,58.8,30.19,North,5,6.0,14.0,77,0.00,,,0.00,Wunderground v.1.15,2013-09-18 05:32:00,
2013-09-18 01:38:00,66.2,58.4,30.19,North,359,7.0,14.0,76,0.00,,,0.00,Wunderground v.1.15,2013-09-18 05:38:00,
2013-09-18 01:42:00,66.2,58.8,30.19,North,9,7.0,9.0,77,0.00,,,0.00,Wunderground v.1.15,2013-09-18 05:42:00,
2013-09-18 01:48:00,66.2,58.4,30.19,NNW,345,6.0,14.0,76,0.00,,,0.00,Wunderground v.1.15,2013-09-18 05:48:00,
2013-09-18 01:54:00,66.1,58.7,30.19,North,8,6.0,14.0,77,0.00,,,0.00,Wunderground v.1.15,2013-09-18 05:54:00,
2013-09-18 02:02:00,66.1,58.3,30.19,North,360,6.0,14.0,76,0.00,,,0.00,Wunderground v.1.15,2013-09-18 06:02:00,
2013-09-18 02:08:00,66.1,58.3,30.19,North,8,6.0,14.0,76,0.00,,,0.00,Wunderground v.1.15,2013-09-18 06:08:00,
2013-09-18 02:14:00,66.1,58.7,30.19,NW,322,6.0,14.0,77,0.00,,,0.00,Wunderground v.1.15,2013-09-18 06:14:00,
2013-09-18 02:20:00,66.0,58.6,30.20,North,357,5.0,5.0,77,0.00,,,0.00,Wunderground v.1.15,2013-09-18 06:20:00,
2013-09-18 02:26:00,66.0,58.6,30.20,NNW,341,4.0,14.0,77,0.00,,,0.00,Wunderground v.1.15,2013-09-18 06:26:00,
2013-09-18 02:32:00,66.1,58.7,30.19,NNW,347,4.0,14.0,77,0.00,,,0.00,Wunderground v.1.15,2013-09-18 06:32:00,
2013-09-18 02:38:00,66.1,58.7,30.19,NW,322,4.0,14.0,77,0.00,,,0.00,Wunderground v.1.15,2013-09-18 06:38:00,
2013-09-18 02:44:00,66.0,58.2,30.19,North,354,5.0,14.0,76,0.00,,,0.00,Wunderground v.1.15,2013-09-18 06:44:00,
2013-09-18 02:50:00,66.0,58.6,30.19,NNW,339,5.0,5.0,77,0.00,,,0.00,Wunderground v.1.15,2013-09-18 06:50:00,
2013-09-18 02:56:00,65.8,58.7,30.19,NNW,333,4.0,14.0,78,0.00,,,0.00,Wunderground v.1.15,2013-09-18 06:56:00,
2013-09-18 03:02:00,65.8,58.4,30.19,NNW,342,5.0,14.0,77,0.00,,,0.00,Wunderground v.1.15,2013-09-18 07:02:00,
2013-09-18 03:08:00,65.8,58.7,30.19,NNW,334,5.0,14.0,78,0.00,,,0.00,Wunderground v.1.15,2013-09-18 07:08:00,
2013-09-18 03:14:00,65.8,58.7,30.19,NNW,340,3.0,14.0,78,0.00,,,0.00,Wunderground v.1.15,2013-09-18 07:14:00,
2013-09-18 03:20:00,65.4,58.4,30.18,NW,317,3.0,14.0,78,0.00,,,0.00,Wunderground v.1.15,2013-09-18 07:20:00,
2013-09-18 03:26:00,65.1,58.4,30.19,West,277,3.0,14.0,79,0.00,,,0.00,Wunderground v.1.15,2013-09-18 07:26:00,
2013-09-18 03:32:00,64.9,58.6,30.18,NW,307,2.0,14.0,80,0.00,,,0.00,Wunderground v.1.15,2013-09-18 07:32:00,
2013-09-18 03:38:00,64.7,58.4,30.19,SW,221,2.0,14.0,80,0.00,,,0.00,Wunderground v.1.15,2013-09-18 07:38:00,
2013-09-18 03:44:00,64.5,58.2,30.19,West,270,3.0,14.0,80,0.00,,,0.00,Wunderground v.1.15,2013-09-18 07:44:00,
2013-09-18 03:50:00,64.5,58.2,30.19,NW,308,3.0,14.0,80,0.00,,,0.00,Wunderground v.1.15,2013-09-18 07:50:00,
2013-09-18 03:56:00,64.5,58.2,30.18,WNW,297,2.0,14.0,80,0.00,,,0.00,Wunderground v.1.15,2013-09-18 07:56:00,
2013-09-18 04:02:00,64.3,58.3,30.18,WNW,299,3.0,14.0,81,0.00,,,0.00,Wunderground v.1.15,2013-09-18 08:02:00,
2013-09-18 04:08:00,64.2,58.2,30.19,West,275,3.0,14.0,81,0.00,,,0.00,Wunderground v.1.15,2013-09-18 08:08:00,
2013-09-18 04:14:00,64.0,58.1,30.19,WNW,302,3.0,14.0,81,0.00,,,0.00,Wunderground v.1.15,2013-09-18 08:14:00,
2013-09-18 04:20:00,64.0,58.1,30.19,NW,323,4.0,14.0,81,0.00,,,0.00,Wunderground v.1.15,2013-09-18 08:20:00,
2013-09-18 04:26:00,64.0,58.1,30.18,NNW,329,3.0,14.0,81,0.00,,,0.00,Wunderground v.1.15,2013-09-18 08:26:00,
2013-09-18 04:32:00,64.0,58.1,30.19,WNW,293,3.0,14.0,81,0.00,,,0.00,Wunderground v.1.15,2013-09-18 08:32:00,
2013-09-18 04:38:00,64.0,58.1,30.18,NW,325,3.0,14.0,81,0.00,,,0.00,Wunderground v.1.15,2013-09-18 08:38:00,
2013-09-18 04:44:00,64.1,58.1,30.18,WNW,283,3.0,14.0,81,0.00,,,0.00,Wunderground v.1.15,2013-09-18 08:44:00,
2013-09-18 04:50:00,64.0,58.1,30.18,WNW,294,3.0,14.0,81,0.00,,,0.00,Wunderground v.1.15,2013-09-18 08:50:00,
2013-09-18 04:56:00,63.7,57.8,30.18,NW,314,4.0,14.0,81,0.00,,,0.00,Wunderground v.1.15,2013-09-18 08:56:00,
2013-09-18 05:02:00,63.5,57.6,30.18,NW,316,4.0,14.0,81,0.00,,,0.00,Wunderground v.1.15,2013-09-18 09:02:00,
2013-09-18 05:08:00,63.4,57.8,30.18,NW,312,4.0,14.0,82,0.00,,,0.00,Wunderground v.1.15,2013-09-18 09:08:00,
2013-09-18 05:14:00,63.5,57.9,30.18,NW,319,4.0,14.0,82,0.00,,,0.00,Wunderground v.1.15,2013-09-18 09:14:00,
2013-09-18 05:20:00,63.6,58.0,30.18,WNW,290,4.0,14.0,82,0.00,,,0.00,Wunderground v.1.15,2013-09-18 09:20:00,
2013-09-18 05:26:00,63.4,57.8,30.19,NW,311,3.0,14.0,82,0.00,,,0.00,Wunderground v.1.15,2013-09-18 09:26:00,
2013-09-18 05:32:00,63.2,57.6,30.19,WNW,295,3.0,14.0,82,0.00,,,0.00,Wunderground v.1.15,2013-09-18 09:32:00,
2013-09-18 05:38:00,63.0,57.4,30.19,WNW,292,3.0,14.0,82,0.00,,,0.00,Wunderground v.1.15,2013-09-18 09:38:00,
2013-09-18 05:44:00,62.9,57.7,30.19,NNW,336,3.0,14.0,83,0.00,,,0.00,Wunderground v.1.15,2013-09-18 09:44:00,
2013-09-18 05:50:00,63.0,57.4,30.19,NW,304,3.0,3.0,82,0.00,,,0.00,Wunderground v.1.15,2013-09-18 09:50:00,
2013-09-18 05:56:00,63.0,57.8,30.19,NW,312,2.0,14.0,83,0.00,,,0.00,Wunderground v.1.15,2013-09-18 09:56:00,
2013-09-18 06:02:00,62.9,57.7,30.19,WNW,297,3.0,14.0,83,0.00,,,0.00,Wunderground v.1.15,2013-09-18 10:02:00,
2013-09-18 06:08:00,62.9,57.7,30.19,WNW,285,4.0,14.0,83,0.00,,,0.00,Wunderground v.1.15,2013-09-18 10:08:00,
2013-09-18 06:14:00,62.8,57.6,30.19,NW,312,4.0,14.0,83,0.00,,,0.00,Wunderground v.1.15,2013-09-18 10:14:00,
2013-09-18 06:20:00,62.7,57.5,30.19,NW,312,4.0,4.0,83,0.00,,,0.00,Wunderground v.1.15,2013-09-18 10:20:00,
2013-09-18 06:26:00,62.6,57.4,30.19,NW,315,3.0,14.0,83,0.00,,,0.00,Wunderground v.1.15,2013-09-18 10:26:00,
2013-09-18 06:32:00,62.6,57.4,30.19,WNW,288,2.0,14.0,83,0.00,,,0.00,Wunderground v.1.15,2013-09-18 10:32:00,
2013-09-18 06:38:00,62.4,57.2,30.19,NW,307,3.0,14.0,83,0.00,,,0.00,Wunderground v.1.15,2013-09-18 10:38:00,
2013-09-18 06:44:00,62.2,57.0,30.19,WNW,297,3.0,14.0,83,0.00,,,0.00,Wunderground v.1.15,2013-09-18 10:44:00,
2013-09-18 06:50:00,62.1,56.9,30.20,NW,322,3.0,14.0,83,0.00,,,0.00,Wunderground v.1.15,2013-09-18 10:50:00,
2013-09-18 06:56:00,62.0,56.8,30.20,NW,321,3.0,14.0,83,0.00,,,0.00,Wunderground v.1.15,2013-09-18 10:56:00,
2013-09-18 07:02:00,62.1,56.9,30.20,NW,315,3.0,14.0,83,0.00,,,0.00,Wunderground v.1.15,2013-09-18 11:02:00,
2013-09-18 07:08:00,62.2,57.0,30.20,NW,317,3.0,14.0,83,0.00,,,0.00,Wunderground v.1.15,2013-09-18 11:08:00,
2013-09-18 07:14:00,62.1,56.9,30.20,NW,326,3.0,14.0,83,0.00,,,0.00,Wunderground v.1.15,2013-09-18 11:14:00,
2013-09-18 07:22:00,62.1,56.9,30.20,WNW,290,4.0,14.0,83,0.00,,,0.00,Wunderground v.1.15,2013-09-18 11:22:00,
2013-09-18 07:28:00,62.2,57.0,30.20,WNW,295,4.0,14.0,83,0.00,,,0.00,Wunderground v.1.15,2013-09-18 11:28:00,
2013-09-18 07:34:00,62.3,57.1,30.21,WNW,302,4.0,14.0,83,0.00,,,0.00,Wunderground v.1.15,2013-09-18 11:34:00,
2013-09-18 07:40:00,62.5,57.3,30.21,NW,321,3.0,14.0,83,0.00,,,0.00,Wunderground v.1.15,2013-09-18 11:40:00,
2013-09-18 07:48:00,62.6,57.4,30.21,NW,317,3.0,14.0,83,0.00,,,0.00,Wunderground v.1.15,2013-09-18 11:48:00,
2013-09-18 07:54:00,62.8,57.6,30.21,NW,309,4.0,14.0,83,0.00,,,0.00,Wunderground v.1.15,2013-09-18 11:54:00,
2013-09-18 08:00:00,62.9,57.7,30.21,NW,310,3.0,3.0,83,0.00,,,0.00,Wunderground v.1.15,2013-09-18 12:00:00,
2013-09-18 08:06:00,63.0,57.4,30.21,NW,304,3.0,14.0,82,0.00,,,0.00,Wunderground v.1.15,2013-09-18 12:06:00,
2013-09-18 08:12:00,63.1,57.9,30.21,NW,319,3.0,14.0,83,0.00,,,0.00,Wunderground v.1.15,2013-09-18 12:12:00,
2013-09-18 08:18:00,63.2,57.6,30.21,NW,323,3.0,14.0,82,0.00,,,0.00,Wunderground v.1.15,2013-09-18 12:18:00,
2013-09-18 08:24:00,63.3,57.7,30.21,WNW,302,3.0,14.0,82,0.00,,,0.00,Wunderground v.1.15,2013-09-18 12:24:00,
2013-09-18 08:30:00,63.3,57.7,30.22,NW,321,3.0,14.0,82,0.00,,,0.00,Wunderground v.1.15,2013-09-18 12:30:00,
2013-09-18 08:36:00,63.3,58.0,30.22,NW,322,3.0,14.0,83,0.00,,,0.00,Wunderground v.1.15,2013-09-18 12:36:00,
2013-09-18 08:42:00,63.3,57.7,30.22,NW,314,3.0,14.0,82,0.00,,,0.00,Wunderground v.1.15,2013-09-18 12:42:00,
2013-09-18 08:48:00,63.3,57.7,30.22,West,273,3.0,14.0,82,0.00,,,0.00,Wunderground v.1.15,2013-09-18 12:48:00,
2013-09-18 08:54:00,63.4,57.8,30.22,NW,319,3.0,14.0,82,0.00,,,0.00,Wunderground v.1.15,2013-09-18 12:54:00,
2013-09-18 09:00:00,63.5,57.9,30.22,WNW,293,3.0,3.0,82,0.00,,,0.00,Wunderground v.1.15,2013-09-18 13:00:00,
2013-09-18 09:06:00,63.6,58.0,30.22,NNW,346,3.0,14.0,82,0.00,,,0.00,Wunderground v.1.15,2013-09-18 13:06:00,
2013-09-18 09:12:00,63.6,57.7,30.22,NW,317,3.0,14.0,81,0.00,,,0.00,Wunderground v.1.15,2013-09-18 13:12:00,
2013-09-18 09:18:00,63.7,57.8,30.22,WNW,300,3.0,14.0,81,0.00,,,0.00,Wunderground v.1.15,2013-09-18 13:18:00,
2013-09-18 09:24:00,63.7,57.8,30.22,NW,314,3.0,14.0,81,0.00,,,0.00,Wunderground v.1.15,2013-09-18 13:24:00,
2013-09-18 09:30:00,63.9,58.0,30.22,NW,325,2.0,14.0,81,0.00,,,0.00,Wunderground v.1.15,2013-09-18 13:30:00,
2013-09-18 09:38:00,64.3,57.3,30.23,NW,315,2.0,14.0,78,0.00,,,0.00,Wunderground v.1.15,2013-09-18 13:38:00,
2013-09-18 09:44:00,64.6,57.2,30.23,North,10,3.0,14.0,77,0.00,,,0.00,Wunderground v.1.15,2013-09-18 13:44:00,
2013-09-18 09:50:00,64.6,57.9,30.23,NNW,332,3.0,3.0,79,0.00,,,0.00,Wunderground v.1.15,2013-09-18 13:50:00,
2013-09-18 09:56:00,64.8,57.8,30.24,NW,324,2.0,14.0,78,0.00,,,0.00,Wunderground v.1.15,2013-09-18 13:56:00,
2013-09-18 10:02:00,64.8,58.1,30.24,NW,308,2.0,14.0,79,0.00,,,0.00,Wunderground v.1.15,2013-09-18 14:02:00,
2013-09-18 10:08:00,64.6,57.9,30.24,NW,321,2.0,14.0,79,0.00,,,0.00,Wunderground v.1.15,2013-09-18 14:08:00,
2013-09-18 10:14:00,64.7,58.4,30.24,NNW,332,2.0,14.0,80,0.00,,,0.00,Wunderground v.1.15,2013-09-18 14:14:00,
2013-09-18 10:20:00,64.6,58.3,30.24,WNW,283,2.0,2.0,80,0.00,,,0.00,Wunderground v.1.15,2013-09-18 14:20:00,
2013-09-18 10:26:00,64.7,58.4,30.24,NW,309,2.0,14.0,80,0.00,,,0.00,Wunderground v.1.15,2013-09-18 14:26:00,
2013-09-18 10:32:00,64.6,58.3,30.24,NW,305,2.0,14.0,80,0.00,,,0.00,Wunderground v.1.15,2013-09-18 14:32:00,
2013-09-18 10:38:00,64.6,58.3,30.24,NW,319,3.0,14.0,80,0.00,,,0.00,Wunderground v.1.15,2013-09-18 14:38:00,
2013-09-18 10:44:00,64.6,58.3,30.24,NW,307,3.0,14.0,80,0.00,,,0.00,Wunderground v.1.15,2013-09-18 14:44:00,
2013-09-18 10:50:00,64.7,58.4,30.24,NW,318,2.0,14.0,80,0.00,,,0.00,Wunderground v.1.15,2013-09-18 14:50:00,
2013-09-18 10:56:00,64.8,58.5,30.24,NNW,330,2.0,14.0,80,0.00,,,0.00,Wunderground v.1.15,2013-09-18 14:56:00,
2013-09-18 11:02:00,64.9,58.6,30.24,NW,307,3.0,14.0,80,0.00,,,0.00,Wunderground v.1.15,2013-09-18 15:02:00,
2013-09-18 11:10:00,65.0,58.3,30.24,WNW,288,3.0,14.0,79,0.00,,,0.00,Wunderground v.1.15,2013-09-18 15:10:00,
2013-09-18 11:16:00,65.2,58.9,30.24,NW,307,3.0,14.0,80,0.00,,,0.00,Wunderground v.1.15,2013-09-18 15:16:00,
2013-09-18 11:22:00,65.3,58.6,30.24,SW,229,4.0,14.0,79,0.00,,,0.00,Wunderground v.1.15,2013-09-18 15:22:00,
2013-09-18 11:28:00,65.7,59.0,30.24,NW,311,3.0,14.0,79,0.00,,,0.00,Wunderground v.1.15,2013-09-18 15:28:00,
2013-09-18 11:34:00,66.0,59.3,30.24,WSW,238,2.0,14.0,79,0.00,,,0.00,Wunderground v.1.15,2013-09-18 15:34:00,
2013-09-18 11:40:00,66.5,59.4,30.24,NW,307,2.0,14.0,78,0.00,,,0.00,Wunderground v.1.15,2013-09-18 15:40:00,
2013-09-18 11:46:00,66.2,58.8,30.24,NW,323,3.0,14.0,77,0.00,,,0.00,Wunderground v.1.15,2013-09-18 15:46:00,
2013-09-18 11:52:00,66.1,58.7,30.23,NNW,334,3.0,14.0,77,0.00,,,0.00,Wunderground v.1.15,2013-09-18 15:52:00,
2013-09-18 11:58:00,66.3,58.5,30.23,NW,321,2.0,14.0,76,0.00,,,0.00,Wunderground v.1.15,2013-09-18 15:58:00,
2013-09-18 12:04:00,66.5,59.4,30.23,South,186,2.0,14.0,78,0.00,,,0.00,Wunderground v.1.15,2013-09-18 16:04:00,
2013-09-18 12:12:00,66.8,59.4,30.23,NNW,340,2.0,14.0,77,0.00,,,0.00,Wunderground v.1.15,2013-09-18 16:12:00,
2013-09-18 12:18:00,67.1,59.3,30.23,NW,323,2.0,14.0,76,0.00,,,0.00,Wunderground v.1.15,2013-09-18 16:18:00,
2013-09-18 12:24:00,67.0,58.8,30.23,North,1,2.0,14.0,75,0.00,,,0.00,Wunderground v.1.15,2013-09-18 16:24:00,
2013-09-18 12:30:00,66.8,59.4,30.23,NW,323,3.0,3.0,77,0.00,,,0.00,Wunderground v.1.15,2013-09-18 16:30:00,
2013-09-18 12:36:00,66.7,59.3,30.23,NW,311,3.0,14.0,77,0.00,,,0.00,Wunderground v.1.15,2013-09-18 16:36:00,
2013-09-18 12:42:00,66.6,58.8,30.23,NW,309,3.0,14.0,76,0.00,,,0.00,Wunderground v.1.15,2013-09-18 16:42:00,
2013-09-18 12:48:00,66.8,59.4,30.22,NNW,336,3.0,14.0,77,0.00,,,0.00,Wunderground v.1.15,2013-09-18 16:48:00,
2013-09-18 12:54:00,66.9,59.5,30.22,NNW,343,3.0,14.0,77,0.00,,,0.00,Wunderground v.1.15,2013-09-18 16:54:00,
2013-09-18 13:00:00,67.1,59.3,30.22,NW,310,2.0,14.0,76,0.00,,,0.00,Wunderground v.1.15,2013-09-18 17:00:00,
2013-09-18 13:06:00,67.2,59.7,30.22,NNE,20,3.0,14.0,77,0.00,,,0.00,Wunderground v.1.15,2013-09-18 17:06:00,
2013-09-18 13:12:00,66.9,59.5,30.22,North,9,4.0,14.0,77,0.00,,,0.00,Wunderground v.1.15,2013-09-18 17:12:00,
2013-09-18 13:18:00,67.1,59.6,30.22,NNW,330,4.0,14.0,77,0.00,,,0.00,Wunderground v.1.15,2013-09-18 17:18:00,
2013-09-18 13:24:00,67.3,59.8,30.22,NNW,328,2.0,14.0,77,0.00,,,0.00,Wunderground v.1.15,2013-09-18 17:24:00,
2013-09-18 13:30:00,66.9,59.8,30.22,NNW,343,3.0,14.0,78,0.00,,,0.00,Wunderground v.1.15,2013-09-18 17:30:00,
2013-09-18 13:36:00,66.6,59.9,30.22,NNE,19,3.0,14.0,79,0.00,,,0.00,Wunderground v.1.15,2013-09-18 17:36:00,
2013-09-18 13:42:00,66.2,60.5,30.22,North,9,4.0,14.0,82,0.00,,,0.01,Wunderground v.1.15,2013-09-18 17:42:00,
2013-09-18 13:48:00,65.9,60.2,30.22,North,354,3.0,14.0,82,0.00,,,0.01,Wunderground v.1.15,2013-09-18 17:48:00,
2013-09-18 13:54:00,65.7,60.1,30.22,NNW,330,3.0,14.0,82,0.00,,,0.01,Wunderground v.1.15,2013-09-18 17:54:00,
2013-09-18 14:00:00,65.6,60.0,30.22,NNW,333,2.0,14.0,82,0.00,,,0.01,Wunderground v.1.15,2013-09-18 18:00:00,
2013-09-18 14:06:00,65.5,60.9,30.22,NW,305,2.0,14.0,85,0.00,,,0.02,Wunderground v.1.15,2013-09-18 18:06:00,
2013-09-18 14:12:00,65.2,60.6,30.21,NW,307,1.0,14.0,85,0.19,,,0.04,Wunderground v.1.15,2013-09-18 18:12:00,
2013-09-18 14:18:00,65.0,60.4,30.21,NW,307,0.0,14.0,85,0.09,,,0.04,Wunderground v.1.15,2013-09-18 18:18:00,
2013-09-18 14:24:00,64.9,60.3,30.21,NNW,346,0.0,14.0,85,0.05,,,0.04,Wunderground v.1.15,2013-09-18 18:24:00,
2013-09-18 14:32:00,65.1,61.1,30.21,NW,319,0.0,14.0,87,0.00,,,0.04,Wunderground v.1.15,2013-09-18 18:32:00,
2013-09-18 14:38:00,65.4,61.4,30.21,SW,224,0.0,14.0,87,0.00,,,0.04,Wunderground v.1.15,2013-09-18 18:38:00,
2013-09-18 14:44:00,65.8,61.5,30.21,SW,225,0.0,14.0,86,0.00,,,0.04,Wunderground v.1.15,2013-09-18 18:44:00,
2013-09-18 14:50:00,66.0,61.7,30.20,NW,315,0.0,14.0,86,0.00,,,0.04,Wunderground v.1.15,2013-09-18 18:50:00,
2013-09-18 14:56:00,66.0,61.4,30.20,North,360,1.0,14.0,85,0.00,,,0.04,Wunderground v.1.15,2013-09-18 18:56:00,
2013-09-18 15:02:00,66.1,61.5,30.20,NW,307,1.0,2.0,85,0.00,,,0.04,Wunderground v.1.15,2013-09-18 19:02:00,
2013-09-18 15:08:00,66.3,61.3,30.20,NW,326,1.0,14.0,84,0.00,,,0.04,Wunderground v.1.15,2013-09-18 19:08:00,
2013-09-18 15:14:00,66.6,61.9,30.19,NNW,328,2.0,14.0,85,0.00,,,0.04,Wunderground v.1.15,2013-09-18 19:14:00,
2013-09-18 15:20:00,66.7,61.0,30.19,North,359,2.0,14.0,82,0.00,,,0.04,Wunderground v.1.15,2013-09-18 19:20:00,
2013-09-18 15:26:00,66.8,61.5,30.19,North,5,2.0,14.0,83,0.00,,,0.04,Wunderground v.1.15,2013-09-18 19:26:00,
2013-09-18 15:32:00,67.0,62.0,30.18,NW,308,2.0,14.0,84,0.00,,,0.04,Wunderground v.1.15,2013-09-18 19:32:00,
2013-09-18 15:38:00,67.0,61.7,30.19,WNW,302,1.0,14.0,83,0.00,,,0.04,Wunderground v.1.15,2013-09-18 19:38:00,
2013-09-18 15:44:00,67.1,61.4,30.18,NNE,24,2.0,14.0,82,0.00,,,0.04,Wunderground v.1.15,2013-09-18 19:44:00,
2013-09-18 15:50:00,67.2,60.5,30.18,NNE,18,3.0,3.0,79,0.00,,,0.04,Wunderground v.1.15,2013-09-18 19:50:00,
2013-09-18 15:56:00,67.3,60.6,30.18,NNE,16,2.0,14.0,79,0.00,,,0.04,Wunderground v.1.15,2013-09-18 19:56:00,
2013-09-18 16:02:00,67.4,61.0,30.18,NNE,27,2.0,14.0,80,0.00,,,0.04,Wunderground v.1.15,2013-09-18 20:02:00,
2013-09-18 16:08:00,67.5,61.5,30.18,North,10,3.0,14.0,81,0.00,,,0.04,Wunderground v.1.15,2013-09-18 20:08:00,
2013-09-18 16:16:00,67.6,61.9,30.17,NNE,13,3.0,14.0,82,0.00,,,0.04,Wunderground v.1.15,2013-09-18 20:16:00,
2013-09-18 16:22:00,67.6,61.9,30.17,NNE,15,3.0,14.0,82,0.00,,,0.04,Wunderground v.1.15,2013-09-18 20:22:00,
2013-09-18 16:28:00,67.7,62.0,30.17,North,9,3.0,14.0,82,0.00,,,0.04,Wunderground v.1.15,2013-09-18 20:28:00,
2013-09-18 16:34:00,67.9,62.5,30.17,North,349,4.0,14.0,83,0.00,,,0.04,Wunderground v.1.15,2013-09-18 20:34:00,
2013-09-18 16:40:00,68.0,62.6,30.17,North,5,3.0,14.0,83,0.00,,,0.04,Wunderground v.1.15,2013-09-18 20:40:00,
2013-09-18 16:46:00,68.0,61.9,30.17,NNE,20,3.0,14.0,81,0.00,,,0.04,Wunderground v.1.15,2013-09-18 20:46:00,
2013-09-18 16:52:00,68.0,62.6,30.17,North,4,4.0,14.0,83,0.00,,,0.04,Wunderground v.1.15,2013-09-18 20:52:00,
2013-09-18 16:58:00,68.2,63.2,30.17,NW,307,2.0,14.0,84,0.00,,,0.04,Wunderground v.1.15,2013-09-18 20:58:00,
2013-09-18 17:04:00,68.2,62.8,30.17,NNW,327,2.0,14.0,83,0.00,,,0.04,Wunderground v.1.15,2013-09-18 21:04:00,
2013-09-18 17:10:00,68.2,62.5,30.17,NNW,336,2.0,14.0,82,0.00,,,0.04,Wunderground v.1.15,2013-09-18 21:10:00,
2013-09-18 17:16:00,68.2,62.5,30.17,North,352,2.0,14.0,82,0.00,,,0.04,Wunderground v.1.15,2013-09-18 21:16:00,
2013-09-18 17:22:00,68.2,62.5,30.17,NNE,23,2.0,14.0,82,0.00,,,0.04,Wunderground v.1.15,2013-09-18 21:22:00,
2013-09-18 17:28:00,68.3,62.9,30.17,North,357,2.0,14.0,83,0.00,,,0.04,Wunderground v.1.15,2013-09-18 21:28:00,
2013-09-18 17:34:00,68.4,62.0,30.17,NNE,31,3.0,14.0,80,0.00,,,0.04,Wunderground v.1.15,2013-09-18 21:34:00,
2013-09-18 17:40:00,68.4,62.7,30.16,North,352,4.0,4.0,82,0.00,,,0.04,Wunderground v.1.15,2013-09-18 21:40:00,
2013-09-18 17:46:00,68.4,61.6,30.16,North,5,4.0,14.0,79,0.00,,,0.04,Wunderground v.1.15,2013-09-18 21:46:00,
2013-09-18 17:52:00,68.6,62.2,30.16,NE,38,3.0,14.0,80,0.00,,,0.04,Wunderground v.1.15,2013-09-18 21:52:00,
2013-09-18 17:58:00,68.5,61.7,30.16,NE,46,4.0,14.0,79,0.00,,,0.04,Wunderground v.1.15,2013-09-18 21:58:00,
2013-09-18 18:04:00,68.6,61.8,30.16,NE,43,3.0,14.0,79,0.00,,,0.04,Wunderground v.1.15,2013-09-18 22:04:00,
2013-09-18 18:10:00,68.5,62.1,30.16,North,352,3.0,14.0,80,0.00,,,0.04,Wunderground v.1.15,2013-09-18 22:10:00,
2013-09-18 18:16:00,68.6,61.8,30.17,NNE,19,3.0,14.0,79,0.00,,,0.04,Wunderground v.1.15,2013-09-18 22:16:00,
2013-09-18 18:22:00,68.5,61.7,30.17,NNE,23,3.0,14.0,79,0.00,,,0.04,Wunderground v.1.15,2013-09-18 22:22:00,
2013-09-18 18:28:00,68.5,62.4,30.16,NNW,342,3.0,14.0,81,0.00,,,0.04,Wunderground v.1.15,2013-09-18 22:28:00,
2013-09-18 18:34:00,68.4,61.6,30.16,North,3,3.0,14.0,79,0.00,,,0.04,Wunderground v.1.15,2013-09-18 22:34:00,
2013-09-18 18:40:00,68.4,61.6,30.16,North,352,4.0,14.0,79,0.00,,,0.04,Wunderground v.1.15,2013-09-18 22:40:00,
2013-09-18 18:46:00,68.4,61.6,30.16,NNE,12,4.0,14.0,79,0.00,,,0.04,Wunderground v.1.15,2013-09-18 22:46:00,
2013-09-18 18:52:00,68.3,61.2,30.16,NNE,26,5.0,14.0,78,0.00,,,0.04,Wunderground v.1.15,2013-09-18 22:52:00,
2013-09-18 18:58:00,68.3,61.5,30.16,NNE,19,6.0,14.0,79,0.00,,,0.04,Wunderground v.1.15,2013-09-18 22:58:00,
2013-09-18 19:04:00,68.3,61.5,30.16,NNE,16,7.0,14.0,79,0.00,,,0.04,Wunderground v.1.15,2013-09-18 23:04:00,
2013-09-18 19:10:00,68.2,61.4,30.16,NNE,21,7.0,14.0,79,0.00,,,0.04,Wunderground v.1.15,2013-09-18 23:10:00,
2013-09-18 19:16:00,68.2,61.4,30.16,NNE,13,7.0,14.0,79,0.00,,,0.04,Wunderground v.1.15,2013-09-18 23:16:00,
2013-09-18 19:22:00,68.2,61.8,30.16,North,1,7.0,14.0,80,0.00,,,0.04,Wunderground v.1.15,2013-09-18 23:22:00,
2013-09-18 19:28:00,68.1,61.7,30.16,NNE,23,6.0,14.0,80,0.00,,,0.04,Wunderground v.1.15,2013-09-18 23:28:00,
2013-09-18 19:34:00,68.0,62.3,30.16,NNW,335,6.0,14.0,82,0.00,,,0.04,Wunderground v.1.15,2013-09-18 23:34:00,
2013-09-18 19:40:00,67.3,62.3,30.16,NNW,333,5.0,5.0,84,0.00,,,0.04,Wunderground v.1.15,2013-09-18 23:40:00,
2013-09-18 19:46:00,66.7,62.4,30.16,NNW,347,5.0,14.0,86,0.00,,,0.04,Wunderground v.1.15,2013-09-18 23:46:00,
2013-09-18 19:52:00,66.4,62.4,30.16,NNW,333,4.0,14.0,87,0.00,,,0.04,Wunderground v.1.15,2013-09-18 23:52:00,
2013-09-18 19:58:00,66.3,62.3,30.16,NW,311,4.0,14.0,87,0.00,,,0.04,Wunderground v.1.15,2013-09-18 23:58:00,
2013-09-18 20:04:00,66.2,62.5,30.16,West,280,3.0,14.0,88,0.00,,,0.04,Wunderground v.1.15,2013-09-19 00:04:00,
2013-09-18 20:10:00,66.0,62.3,30.16,NNW,334,3.0,14.0,88,0.00,,,0.04,Wunderground v.1.15,2013-09-19 00:10:00,
2013-09-18 20:16:00,65.8,62.1,30.16,NW,317,3.0,14.0,88,0.00,,,0.04,Wunderground v.1.15,2013-09-19 00:16:00,
2013-09-18 20:22:00,65.7,62.4,30.17,WNW,298,3.0,14.0,89,0.00,,,0.04,Wunderground v.1.15,2013-09-19 00:22:00,
2013-09-18 20:28:00,65.5,62.2,30.17,NW,315,3.0,14.0,89,0.00,,,0.04,Wunderground v.1.15,2013-09-19 00:28:00,
2013-09-18 20:34:00,65.4,62.1,30.17,West,259,3.0,14.0,89,0.00,,,0.04,Wunderground v.1.15,2013-09-19 00:34:00,
2013-09-18 20:40:00,65.3,62.0,30.17,WNW,298,3.0,14.0,89,0.00,,,0.04,Wunderground v.1.15,2013-09-19 00:40:00,
2013-09-18 20:46:00,65.2,61.9,30.18,WNW,294,3.0,14.0,89,0.00,,,0.04,Wunderground v.1.15,2013-09-19 00:46:00,
2013-09-18 20:52:00,65.2,61.9,30.17,WNW,283,3.0,14.0,89,0.00,,,0.04,Wunderground v.1.15,2013-09-19 00:52:00,
2013-09-18 20:58:00,65.2,61.9,30.17,NW,305,3.0,14.0,89,0.00,,,0.04,Wunderground v.1.15,2013-09-19 00:58:00,
2013-09-18 21:04:00,65.2,62.2,30.18,NNW,327,3.0,14.0,90,0.00,,,0.04,Wunderground v.1.15,2013-09-19 01:04:00,
2013-09-18 21:10:00,65.2,62.2,30.18,NW,306,3.0,14.0,90,0.00,,,0.04,Wunderground v.1.15,2013-09-19 01:10:00,
2013-09-18 21:16:00,65.1,62.1,30.17,NW,317,3.0,14.0,90,0.00,,,0.04,Wunderground v.1.15,2013-09-19 01:16:00,
2013-09-18 21:22:00,65.1,62.1,30.17,NNW,333,3.0,14.0,90,0.00,,,0.04,Wunderground v.1.15,2013-09-19 01:22:00,
2013-09-18 21:28:00,65.0,62.0,30.18,WNW,302,2.0,14.0,90,0.00,,,0.04,Wunderground v.1.15,2013-09-19 01:28:00,
2013-09-18 21:34:00,65.0,62.0,30.18,NW,310,2.0,14.0,90,0.00,,,0.04,Wunderground v.1.15,2013-09-19 01:34:00,
2013-09-18 21:40:00,65.0,62.0,30.18,NW,314,2.0,14.0,90,0.00,,,0.04,Wunderground v.1.15,2013-09-19 01:40:00,
2013-09-18 21:46:00,65.1,62.1,30.18,NW,325,2.0,14.0,90,0.00,,,0.04,Wunderground v.1.15,2013-09-19 01:46:00,
2013-09-18 21:52:00,65.1,62.4,30.18,NW,307,2.0,14.0,91,0.00,,,0.04,Wunderground v.1.15,2013-09-19 01:52:00,
2013-09-18 21:58:00,65.1,62.1,30.18,WNW,295,2.0,14.0,90,0.00,,,0.04,Wunderground v.1.15,2013-09-19 01:58:00,
2013-09-18 22:04:00,64.9,62.2,30.18,WNW,290,3.0,14.0,91,0.00,,,0.04,Wunderground v.1.15,2013-09-19 02:04:00,
2013-09-18 22:12:00,64.8,62.1,30.18,NW,305,2.0,14.0,91,0.00,,,0.04,Wunderground v.1.15,2013-09-19 02:12:00,
2013-09-18 22:18:00,64.8,62.1,30.18,WNW,297,3.0,14.0,91,0.00,,,0.04,Wunderground v.1.15,2013-09-19 02:18:00,
2013-09-18 22:24:00,64.7,62.0,30.19,NW,304,4.0,14.0,91,0.00,,,0.04,Wunderground v.1.15,2013-09-19 02:24:00,
2013-09-18 22:30:00,64.7,62.0,30.19,WNW,284,4.0,14.0,91,0.00,,,0.04,Wunderground v.1.15,2013-09-19 02:30:00,
2013-09-18 22:36:00,64.6,61.9,30.19,WNW,285,4.0,14.0,91,0.00,,,0.04,Wunderground v.1.15,2013-09-19 02:36:00,
2013-09-18 22:42:00,64.6,61.9,30.18,WNW,300,3.0,14.0,91,0.00,,,0.04,Wunderground v.1.15,2013-09-19 02:42:00,
2013-09-18 22:48:00,64.6,61.6,30.19,NW,305,4.0,14.0,90,0.00,,,0.04,Wunderground v.1.15,2013-09-19 02:48:00,
2013-09-18 22:54:00,64.6,61.9,30.18,NW,324,4.0,14.0,91,0.00,,,0.04,Wunderground v.1.15,2013-09-19 02:54:00,
2013-09-18 23:02:00,64.6,61.9,30.18,NW,305,4.0,14.0,91,0.00,,,0.04,Wunderground v.1.15,2013-09-19 03:02:00,
2013-09-18 23:10:00,64.6,61.9,30.19,NW,319,4.0,14.0,91,0.00,,,0.04,Wunderground v.1.15,2013-09-19 03:10:00,
2013-09-18 23:16:00,64.6,61.9,30.19,NNW,333,4.0,14.0,91,0.00,,,0.04,Wunderground v.1.15,2013-09-19 03:16:00,
2013-09-18 23:22:00,64.6,61.9,30.18,NW,318,4.0,14.0,91,0.00,,,0.04,Wunderground v.1.15,2013-09-19 03:22:00,
2013-09-18 23:28:00,64.6,61.9,30.18,NW,317,4.0,14.0,91,0.00,,,0.04,Wunderground v.1.15,2013-09-19 03:28:00,
2013-09-18 23:34:00,64.5,61.8,30.18,NW,315,3.0,14.0,91,0.00,,,0.04,Wunderground v.1.15,2013-09-19 03:34:00,
2013-09-18 23:40:00,64.5,61.8,30.18,NW,316,3.0,14.0,91,0.00,,,0.04,Wunderground v.1.15,2013-09-19 03:40:00,
2013-09-18 23:46:00,64.5,61.8,30.18,NW,319,3.0,14.0,91,0.00,,,0.04,Wunderground v.1.15,2013-09-19 03:46:00,
2013-09-18 23:52:00,64.3,61.6,30.18,WNW,293,3.0,14.0,91,0.00,,,0.04,Wunderground v.1.15,2013-09-19 03:52:00,